Total_Precipitation_Accumulation
1.57 1.54 1.46 1.33 1.30 1.32 1.34 1.41 1.51 1.35 1.04 0.82 0.78 0.78 0.81 0.84 0.95 0.92 0.86 1.00 1.00 0.94 0.94 0.94 0.92 0.89 0.87 0.88 0.98 1.14 1.26 1.31 1.35 1.44 1.53 1.51 1.46 1.49
1.37 1.43 1.43 1.34 1.28 1.27 1.30 1.35 1.42 1.47 1.24 0.85 0.74 0.76 0.81 0.83 0.92 0.82 0.78 0.93 0.91 0.89 0.85 0.82 0.81 0.78 0.76 0.75 0.78 0.86 0.95 1.05 1.14 1.26 1.45 1.61 1.67 1.69
1.21 1.23 1.25 1.27 1.31 1.29 1.28 1.33 1.37 1.42 1.38 1.02 0.83 0.82 0.88 0.89 0.89 0.81 0.74 0.73 0.73 0.84 0.80 0.75 0.73 0.71 0.70 0.69 0.69 0.71 0.73 0.81 0.92 1.07 1.23 1.40 1.51 1.55
1.07 1.10 1.11 1.13 1.18 1.21 1.25 1.30 1.33 1.33 1.34 1.18 0.94 0.85 0.83 0.81 0.80 0.77 0.72 0.67 0.62 0.75 0.74 0.71 0.68 0.65 0.63 0.62 0.64 0.67 0.67 0.70 0.76 0.84 0.94 1.09 1.25 1.36
0.97 0.98 0.99 1.04 1.10 1.11 1.13 1.15 1.15 1.15 1.19 1.16 0.98 0.82 0.76 0.73 0.73 0.70 0.65 0.62 0.57 0.62 0.65 0.66 0.65 0.65 0.65 0.64 0.66 0.65 0.62 0.59 0.60 0.66 0.74 0.87 1.00 1.12
0.91 0.96 0.97 0.97 0.98 1.00 1.04 1.05 1.02 1.02 1.03 1.06 0.99 0.89 0.83 0.78 0.81 0.79 0.74 0.67 0.62 0.56 0.62 0.63 0.66 0.66 0.62 0.59 0.57 0.60 0.59 0.59 0.63 0.68 0.75 0.81 0.89 0.99
0.84 0.88 0.95 1.04 1.05 1.01 0.97 0.95 0.95 0.99 1.02 1.08 1.04 0.90 0.78 0.75 0.75 0.70 0.71 0.72 0.71 0.66 0.65 0.60 0.55 0.51 0.49 0.51 0.54 0.58 0.63 0.66 0.68 0.71 0.76 0.82 0.87 0.95
0.81 0.79 0.80 0.88 0.89 0.91 0.90 0.87 0.90 0.97 1.07 1.11 1.00 0.82 0.66 0.60 0.60 0.66 0.73 0.80 0.74 0.57 0.58 0.58 0.54 0.54 0.49 0.46 0.55 0.59 0.61 0.64 0.64 0.65 0.68 0.74 0.80 0.86
0.79 0.74 0.69 0.67 0.70 0.64 0.69 0.73 0.75 0.83 0.86 0.77 0.71 0.61 0.57 0.56 0.66 0.76 0.75 0.75 0.63 0.50 0.57 0.63 0.57 0.56 0.50 0.50 0.57 0.54 0.55 0.60 0.64 0.66 0.67 0.70 0.74 0.79
0.66 0.59 0.55 0.51 0.49 0.51 0.54 0.62 0.60 0.59 0.58 0.53 0.50 0.48 0.48 0.51 0.63 0.77 0.79 0.78 0.65 0.54 0.54 0.60 0.50 0.48 0.46 0.47 0.55 0.54 0.54 0.58 0.66 0.71 0.74 0.74 0.75 0.79
0.54 0.50 0.49 0.45 0.52 0.58 0.56 0.57 0.48 0.42 0.46 0.51 0.53 0.53 0.55 0.56 0.58 0.70 0.82 0.90 0.81 0.57 0.47 0.50 0.45 0.43 0.44 0.43 0.45 0.52 0.53 0.56 0.60 0.64 0.67 0.69 0.72 0.77
0.44 0.44 0.50 0.48 0.55 0.61 0.55 0.51 0.45 0.38 0.39 0.43 0.47 0.49 0.47 0.50 0.57 0.58 0.73 0.99 0.90 0.67 0.39 0.46 0.50 0.57 0.73 0.47 0.39 0.42 0.47 0.52 0.57 0.62 0.65 0.68 0.73 0.75
0.40 0.40 0.42 0.53 0.59 0.61 0.54 0.45 0.47 0.51 0.46 0.45 0.46 0.46 0.46 0.49 0.51 0.50 0.57 0.92 1.15 0.86 0.43 0.69 0.88 0.71 0.89 0.65 0.43 0.40 0.42 0.46 0.52 0.59 0.64 0.69 0.78 0.91
0.40 0.38 0.42 0.55 0.56 0.54 0.51 0.50 0.55 0.54 0.45 0.48 0.50 0.48 0.44 0.42 0.42 0.45 0.48 0.55 0.71 0.80 0.59 0.87 1.26 0.98 1.10 0.92 0.56 0.44 0.42 0.44 0.53 0.65 0.72 0.82 0.86 0.93
0.42 0.45 0.48 0.51 0.49 0.47 0.50 0.54 0.53 0.47 0.47 0.50 0.49 0.46 0.43 0.43 0.46 0.51 0.54 0.53 0.53 0.51 0.53 0.62 0.90 0.98 1.20 1.18 0.78 0.52 0.51 0.49 0.51 0.67 0.77 0.84 0.85 0.88
0.47 0.47 0.45 0.44 0.44 0.45 0.47 0.48 0.48 0.48 0.53 0.55 0.51 0.49 0.49 0.52 0.55 0.56 0.60 0.62 0.66 0.57 0.51 0.51 0.61 0.91 1.12 0.89 0.88 0.75 0.61 0.69 0.62 0.72 0.83 0.85 0.88 0.93
0.57 0.52 0.48 0.46 0.44 0.43 0.43 0.44 0.45 0.49 0.54 0.54 0.58 0.61 0.60 0.60 0.58 0.57 0.64 0.71 0.75 0.62 0.54 0.53 0.57 0.66 0.78 0.83 0.88 0.71 0.64 0.69 0.78 0.92 1.06 1.09 0.98 1.02
0.67 0.56 0.48 0.44 0.44 0.43 0.44 0.46 0.48 0.51 0.56 0.62 0.66 0.70 0.73 0.71 0.67 0.61 0.64 0.74 0.75 0.63 0.58 0.57 0.66 0.81 0.78 0.68 0.68 0.76 0.78 0.85 0.90 0.97 1.15 1.34 1.16 1.00
0.62 0.48 0.41 0.38 0.40 0.43 0.48 0.52 0.53 0.52 0.60 0.71 0.77 0.80 0.84 0.81 0.77 0.73 0.69 0.71 0.69 0.61 0.58 0.62 0.79 1.14 1.17 0.74 0.50 0.66 0.99 1.08 1.03 1.05 1.14 1.34 1.47 1.23
0.46 0.41 0.39 0.40 0.44 0.49 0.53 0.57 0.60 0.62 0.68 0.72 0.77 0.83 0.92 0.95 0.88 0.78 0.74 0.76 0.78 0.71 0.63 0.59 0.69 1.08 1.52 1.29 0.95 0.70 0.81 1.16 1.40 1.44 1.22 1.07 1.12 1.12
0.36 0.37 0.41 0.47 0.52 0.56 0.59 0.62 0.66 0.70 0.70 0.75 0.78 0.82 0.91 1.02 0.93 0.79 0.79 0.78 0.85 0.84 0.75 0.58 0.56 0.77 1.14 1.36 1.14 0.74 0.74 0.87 1.21 1.64 1.59 1.39 1.15 1.02
0.38 0.43 0.47 0.53 0.60 0.66 0.68 0.69 0.71 0.69 0.71 0.77 0.78 0.81 0.86 0.99 0.99 0.89 0.88 0.90 0.85 0.81 0.77 0.64 0.62 0.74 0.96 1.20 1.00 0.71 0.69 0.68 0.70 0.82 1.18 1.70 2.24 2.31
0.46 0.50 0.54 0.59 0.65 0.71 0.74 0.73 0.73 0.68 0.69 0.78 0.83 0.84 0.88 0.93 0.90 0.94 0.94 0.96 0.97 0.88 0.82 0.76 0.67 0.68 0.73 0.81 0.88 0.77 0.68 0.63 0.60 0.65 0.86 1.03 1.28 1.57